Volver al catálogo

TIANMU-1 14

ActivoMeteoSSO
NORAD 58648·PAYLOAD·🇨🇳 China

Lanzado Dec 25, 2023 desde Jiuquan Satellite Launch Center

Loading…

Próximos Pases (próximas 24 horas)

TLE

ActualizadoSource: Space-Track

Época: Sep 14, 2026, 14:38 UTC

1 58648U 23205D   26257.61003632  .00004491  00000-0  16977-3 0  9997
2 58648  97.3385 276.9310 0007705  32.7796 327.3920 15.27456198151156

Sigue TIANMU-1 14 en tiempo real con AllMySat

Download on the App Store